CW3442 Weather Reports


Display with metric or nautical units.
time (UTC)temp
F
wind
direction
speed
MPH
gust
MPH
rain 1hr
in
rain 24hr
in
rain mn
in
humidity
%
barometer
mb
20260902120537 60 71 0.0 0.0 0.00 0.00 0.00 83 1013.5
20260902113527 58 109 0.0 0.0 0.00 0.00 0.00 84 1013.7
20260902110526 57 125 0.0 0.0 0.00 0.00 0.00 85 1013.9
20260902103539 55 125 0.0 0.0 0.00 0.00 0.00 85 1014.4
20260902100601 55 125 0.0 0.0 0.00 0.00 0.00 84 1014.2
20260902093538 56 125 0.0 0.0 0.00 0.00 0.00 83 1013.9
20260902090529 56 125 0.0 0.0 0.00 0.00 0.00 82 1014.0
20260902083535 57 125 0.0 0.0 0.00 0.00 0.00 81 1013.9
20260902080550 57 125 0.0 0.0 0.00 0.00 0.00 80 1014.1
20260902073526 58 125 0.0 0.0 0.00 0.00 0.00 79 1013.9
20260902070602 58 130 0.0 0.0 0.00 0.00 0.00 78 1013.8
20260902063542 59 130 0.0 0.0 0.00 0.00 0.00 77 1013.8
20260902060524 59 113 0.0 0.0 0.00 0.00 0.00 77 1014.0
20260902053555 60 113 0.0 0.0 0.00 0.00 0.00 77 1014.1
20260902050537 61 113 0.0 0.0 0.00 0.00 0.00 76 1014.1
20260902043535 62 113 0.0 0.0 0.00 0.00 0.00 76 1013.8
20260902040535 62 113 0.0 0.0 0.00 0.00 0.00 78 1013.7
20260902033553 62 113 0.0 0.0 0.00 0.00 0.00 80 1013.5
20260902030544 63 113 0.0 0.0 0.00 0.00 0.00 81 1013.3
20260902023558 64 113 0.0 0.0 0.00 0.00 0.00 80 1013.3
20260902020553 65 113 0.0 0.0 0.00 0.00 0.00 77 1013.1
20260902013526 66 113 0.0 0.0 0.00 0.00 0.00 74 1012.4
20260902010607 66 113 0.0 0.0 0.00 0.00 0.00 72 1012.4
20260902003536 67 113 0.0 0.0 0.00 0.00 0.00 70 1012.9
20260902000528 68 113 0.0 0.0 0.00 0.00 0.00 67 1012.9
20260901233550 70 113 0.0 0.0 0.00 0.00 0.00 64 1012.9
20260901230546 71 113 0.0 0.0 0.00 0.00 0.00 61 1012.8
20260901223546 73 113 0.0 0.0 0.00 0.00 0.00 58 1013.2
20260901220522 74 109 0.0 0.0 0.00 0.00 0.00 55 1013.4
20260901213603 74 74 0.0 0.0 0.00 0.00 0.00 53 1013.2
20260901210527 74 101 0.0 0.0 0.00 0.00 0.00 52 1012.6
20260901203540 75 90 0.0 0.0 0.00 0.00 0.00 51 1012.5
20260901200541 75 92 0.0 0.0 0.00 0.00 0.00 51 1012.6
20260901193535 76 256 0.0 0.0 0.00 0.00 0.00 49 1012.8
20260901190533 77 86 0.0 0.0 0.00 0.00 0.00 46 1012.9
20260901183526 77 304 0.0 0.0 0.00 0.00 0.00 46 1013.1
20260901180542 77 88 0.0 0.0 0.00 0.00 0.00 48 1013.2
20260901173531 76 94 1.0 0.0 0.00 0.00 0.00 47 1013.3
20260901170527 75 92 1.0 0.0 0.00 0.00 0.00 48 1013.5
20260901160538 75 109 0.0 0.0 0.00 0.00 0.00 53 1014.1
20260901153548 72 106 1.0 0.0 0.00 0.00 0.00 57 1014.4
20260901150541 71 123 0.0 0.0 0.00 0.00 0.00 61 1014.3
20260901143539 69 67 0.0 0.0 0.00 0.00 0.00 66 1014.2
20260901140539 68 76 0.0 0.0 0.00 0.00 0.00 69 1014.1
20260901133534 63 76 0.0 0.0 0.00 0.00 0.00 82 1014.1
20260901130533 62 92 0.0 0.0 0.00 0.00 0.00 81 1014.1
20260901123530 62 92 0.0 0.0 0.00 0.00 0.00 83 1014.1